Location: Chacón
(10.5789°N, 66.9317°W)
Time: 23:11:34
(UTC+00:00)

BREEZE-M DEB (TANK) - Pass Details

Date: 12 August 2024
Orbit: 331 x 16054 km, 49.4° (Epoch: 16 September)

Event Time Altitude Azimuth Distance (km) Brightness Sun altitude
Rises 01:04:15 0° 237° (WSW) 20,055 10.6 -32.4°
Reaches altitude 10° 01:48:51 10° 254° (WSW) 13,947 9.7 -42.1°
Maximum altitude 02:21:40 19° 296° (WNW) 6,448 8.0 -48.7°
Drops below altitude 10° 02:32:04 10° 341° (NNW) 4,509 7.3 -50.7°
Sets 02:35:44 0° 1° (N) 4,485 7.3 -51.4°
